G8LNQ Weather Reports


Display with metric or nautical units.
time (UTC)temp
F
wind
direction
speed
MPH
gust
MPH
rain 1hr
in
rain 24hr
in
rain mn
in
humidity
%
barometer
mb
20260508111057 58 266 1.0 5.0 0.00 0.00 0.00 60 1016.3
20260508110510 58 266 1.0 7.0 0.00 0.00 0.00 61 1016.3
20260508110047 57 266 3.0 7.0 0.00 0.00 0.00 61 1016.4
20260508105512 57 266 3.0 7.0 0.00 0.00 0.00 60 1016.4
20260508105034 58 232 3.0 7.0 0.00 0.00 0.00 60 1016.4
20260508104514 58 237 2.0 6.0 0.00 0.00 0.00 60 1016.4
20260508104038 58 237 3.0 7.0 0.00 0.00 0.00 59 1016.4
20260508103517 59 236 2.0 7.0 0.00 0.00 0.00 58 1016.4
20260508103038 60 177 0.0 5.0 0.00 0.00 0.00 62 1016.4
20260508102513 60 171 1.0 4.0 0.00 0.00 0.00 61 1016.4
20260508102049 60 171 1.0 5.0 0.00 0.00 0.00 61 1016.4
20260508101523 60 171 1.0 3.0 0.00 0.00 0.00 61 1016.4
20260508101049 59 119 0.0 9.0 0.00 0.00 0.00 60 1016.4
20260508100508 59 119 3.0 9.0 0.00 0.00 0.00 62 1016.4
20260508100047 59 104 2.0 6.0 0.00 0.00 0.00 64 1016.4
20260508095507 59 78 2.0 6.0 0.00 0.00 0.00 64 1016.4
20260508095050 59 229 1.0 6.0 0.00 0.00 0.00 62 1016.4
20260508094508 60 131 1.0 5.0 0.00 0.00 0.00 63 1016.4
20260508094048 60 131 1.0 6.0 0.00 0.00 0.00 64 1016.4
20260508093530 59 212 2.0 6.0 0.00 0.00 0.00 63 1016.3
20260508093024 59 170 1.0 5.0 0.00 0.00 0.00 64 1016.3
20260508092547 59 142 2.0 5.0 0.00 0.00 0.00 66 1016.3
20260508092026 58 142 2.0 6.0 0.00 0.00 0.00 65 1016.3
20260508091504 59 142 3.0 6.0 0.00 0.00 0.00 68 1016.4
20260508091044 59 142 2.0 5.0 0.00 0.00 0.00 68 1016.2
20260508090523 58 142 1.0 5.0 0.00 0.00 0.00 67 1016.2
20260508090111 58 142 2.0 5.0 0.00 0.00 0.00 67 1016.3
20260508085540 58 142 1.0 4.0 0.00 0.00 0.00 69 1016.3
20260508085018 58 142 1.0 4.0 0.00 0.00 0.00 70 1016.3
20260508084550 58 142 1.0 4.0 0.00 0.00 0.00 70 1016.3
20260508084035 57 142 0.0 5.0 0.00 0.00 0.00 70 1016.4
20260508083514 57 142 1.0 5.0 0.00 0.00 0.00 69 1016.4
20260508083047 57 142 2.0 5.0 0.00 0.00 0.00 69 1016.3
20260508082524 57 142 1.0 5.0 0.00 0.00 0.00 70 1016.4
20260508082046 57 239 1.0 3.0 0.00 0.00 0.00 70 1016.4
20260508081520 57 240 0.0 4.0 0.00 0.00 0.00 72 1016.4
20260508081044 56 240 2.0 4.0 0.00 0.00 0.00 72 1016.3
20260508080523 56 240 1.0 4.0 0.00 0.00 0.00 71 1016.2
20260508080054 55 240 1.0 3.0 0.00 0.00 0.00 72 1016.2
20260508075534 55 241 0.0 4.0 0.00 0.00 0.00 73 1016.3
20260508075016 54 241 1.0 4.0 0.00 0.00 0.00 73 1016.2
20260508074543 54 242 1.0 3.0 0.00 0.00 0.00 74 1016.2
20260508074020 53 242 0.0 3.0 0.00 0.00 0.00 75 1016.2
20260508073518 52 242 0.0 3.0 0.00 0.00 0.00 77 1016.2
20260508073053 52 242 1.0 5.0 0.00 0.00 0.00 77 1016.2
20260508072527 51 242 2.0 4.0 0.00 0.00 0.00 77 1016.1
20260508072050 51 243 1.0 4.0 0.00 0.00 0.00 78 1016.1
20260508071529 51 243 2.0 5.0 0.00 0.00 0.00 78 1016.0
20260508071052 51 242 1.0 5.0 0.00 0.00 0.00 79 1016.0
20260508070537 51 242 1.0 3.0 0.00 0.00 0.00 79 1015.8
20260508070012 51 242 0.0 2.0 0.00 0.00 0.00 81 1015.8
20260508065528 50 242 0.0 2.0 0.00 0.00 0.00 83 1015.9
20260508065004 50 242 0.0 4.0 0.00 0.00 0.00 84 1015.8
20260508064544 49 242 1.0 4.0 0.00 0.00 0.00 85 1015.8
20260508064100 49 242 1.0 3.0 0.00 0.00 0.00 87 1015.8
20260508064002 49 242 1.0 3.0 0.00 0.00 0.00 87 1015.8
20260508063539 49 243 1.0 3.0 0.00 0.00 0.00 88 1015.7
20260508063058 48 243 1.0 2.0 0.00 0.00 0.00 88 1015.7
20260508062538 47 243 0.0 3.0 0.00 0.00 0.00 89 1015.7
20260508062058 47 244 1.0 3.0 0.00 0.00 0.00 89 1015.6
20260508061540 46 244 2.0 3.0 0.00 0.00 0.00 89 1015.6
20260508061058 46 244 0.0 0.0 0.00 0.00 0.00 90 1015.5
20260508060541 45 244 0.0 0.0 0.00 0.00 0.00 91 1015.4
20260508060100 44 244 0.0 0.0 0.00 0.00 0.00 90 1015.5
20260508060003 44 244 0.0 0.0 0.00 0.00 0.00 89 1015.4
20260508055544 44 244 0.0 0.0 0.00 0.00 0.00 89 1015.3
20260508055059 44 244 0.0 0.0 0.00 0.00 0.00 89 1015.3
20260508055004 44 244 0.0 0.0 0.00 0.00 0.00 90 1015.2
20260508054603 44 244 0.0 0.0 0.00 0.00 0.00 89 1015.2
20260508054059 44 244 0.0 0.0 0.00 0.00 0.00 89 1015.3
20260508054002 44 244 0.0 0.0 0.00 0.00 0.00 89 1015.3
20260508053543 44 244 0.0 0.0 0.00 0.00 0.00 89 1015.2
20260508053101 44 244 0.0 0.0 0.00 0.00 0.00 89 1015.1
20260508053002 44 244 0.0 0.0 0.00 0.00 0.00 89 1015.1
20260508052546 44 244 0.0 0.0 0.00 0.00 0.00 89 1015.1
20260508052004 44 244 0.0 0.0 0.00 0.00 0.00 89 1015.1
20260508051542 44 244 0.0 0.0 0.00 0.00 0.00 89 1015.1
20260508051100 44 244 0.0 0.0 0.00 0.00 0.00 89 1015.0
20260508051002 44 244 0.0 0.0 0.00 0.00 0.00 89 1015.1
20260508050542 44 244 0.0 0.0 0.00 0.00 0.00 89 1015.0
20260508050021 44 244 0.0 0.0 0.00 0.00 0.00 88 1014.9
20260508045539 44 244 0.0 0.0 0.00 0.00 0.00 88 1014.9
20260508045017 44 244 0.0 0.0 0.00 0.00 0.00 88 1014.9
20260508044553 45 244 0.0 0.0 0.00 0.00 0.00 88 1014.9
20260508044005 45 244 0.0 0.0 0.00 0.00 0.00 88 1014.9
20260508043539 45 244 0.0 0.0 0.00 0.00 0.00 88 1015.0
20260508043009 45 244 0.0 0.0 0.00 0.00 0.00 88 1015.0
20260508042550 45 244 0.0 0.0 0.00 0.00 0.00 88 1015.0
20260508042027 45 244 0.0 0.0 0.00 0.00 0.00 87 1014.9
20260508041602 45 244 0.0 0.0 0.00 0.00 0.00 87 1014.9
20260508041501 45 244 0.0 0.0 0.00 0.00 0.00 87 1014.9
20260508041038 45 244 0.0 0.0 0.00 0.00 0.00 87 1014.8
20260508040517 45 244 0.0 0.0 0.00 0.00 0.00 86 1014.9
20260508040053 46 244 0.0 0.0 0.00 0.00 0.00 86 1014.8
20260508035525 46 244 0.0 0.0 0.00 0.00 0.00 86 1014.8
20260508035059 46 244 0.0 0.0 0.00 0.00 0.00 85 1014.8
20260508035007 46 244 0.0 0.0 0.00 0.00 0.00 85 1014.7
20260508034544 46 244 0.0 3.0 0.00 0.00 0.00 84 1014.8
20260508034003 46 244 1.0 3.0 0.00 0.00 0.00 84 1014.7
20260508033525 47 244 0.0 1.0 0.00 0.00 0.00 83 1014.8
20260508033010 47 244 0.0 3.0 0.00 0.00 0.00 83 1014.7
20260508032527 47 244 0.0 4.0 0.00 0.00 0.00 83 1014.7
20260508032004 47 244 2.0 4.0 0.00 0.00 0.00 82 1014.6
20260508031553 47 244 2.0 5.0 0.00 0.00 0.00 82 1014.7
20260508031015 47 244 2.0 5.0 0.00 0.00 0.00 82 1014.8
20260508030553 48 244 1.0 4.0 0.00 0.00 0.00 81 1014.8
20260508030016 48 244 0.0 5.0 0.00 0.00 0.00 81 1014.8
20260508025547 48 232 3.0 5.0 0.00 0.00 0.00 81 1014.7
20260508025027 48 244 1.0 4.0 0.00 0.00 0.00 81 1014.7
20260508024549 48 244 2.0 5.0 0.00 0.00 0.00 81 1014.7
20260508024025 48 244 2.0 5.0 0.00 0.00 0.00 82 1014.6
20260508023556 47 244 1.0 4.0 0.00 0.00 0.00 82 1014.6
20260508023040 47 244 2.0 4.0 0.00 0.00 0.00 82 1014.7
20260508022517 47 244 2.0 6.0 0.00 0.00 0.00 82 1014.7
20260508022048 47 244 2.0 5.0 0.00 0.00 0.00 82 1014.7
20260508021533 47 244 3.0 5.0 0.00 0.00 0.00 82 1014.7
20260508021009 47 244 0.0 4.0 0.00 0.00 0.00 81 1014.6
20260508020533 48 244 1.0 5.0 0.00 0.00 0.00 81 1014.6
20260508020003 48 244 1.0 8.0 0.00 0.00 0.00 80 1014.7
20260508015543 48 244 3.0 6.0 0.00 0.00 0.00 81 1014.7
20260508015021 48 242 3.0 7.0 0.00 0.00 0.00 81 1014.7
20260508014602 48 242 3.0 8.0 0.00 0.00 0.00 82 1014.6
20260508014503 48 238 2.0 8.0 0.00 0.00 0.00 82 1014.6
20260508014037 47 244 2.0 6.0 0.00 0.00 0.00 82 1014.6
20260508013511 47 244 0.0 5.0 0.00 0.00 0.00 82 1014.6
20260508013051 47 244 0.0 7.0 0.00 0.00 0.00 82 1014.7
20260508012529 47 245 4.0 7.0 0.00 0.00 0.00 83 1014.6
20260508012005 47 227 0.0 3.0 0.00 0.00 0.00 84 1014.7
20260508011527 47 227 0.0 4.0 0.00 0.00 0.00 84 1014.7
20260508011008 46 227 2.0 4.0 0.00 0.00 0.00 85 1014.7
20260508010531 46 227 0.0 0.0 0.00 0.00 0.00 86 1014.7
20260508010013 46 227 0.0 0.0 0.00 0.00 0.00 86 1014.8
20260508005530 46 227 0.0 0.0 0.00 0.00 0.00 85 1014.8
20260508005012 46 227 0.0 0.0 0.00 0.00 0.00 85 1014.8
20260508004525 46 227 0.0 0.0 0.00 0.00 0.00 85 1014.9
20260508004047 46 227 0.0 0.0 0.00 0.00 0.00 85 1014.9
20260508003526 47 227 0.0 0.0 0.00 0.00 0.00 85 1014.8
20260508003058 47 227 0.0 0.0 0.00 0.00 0.00 85 1014.9
20260508002525 47 227 0.0 0.0 0.00 0.00 0.00 84 1014.9
20260508002059 47 227 0.0 0.0 0.00 0.00 0.00 84 1014.9
20260508002004 47 227 0.0 0.0 0.00 0.00 0.00 84 1014.8
20260508001532 47 227 0.0 0.0 0.00 0.00 0.00 84 1014.9
20260508001005 47 227 0.0 0.0 0.00 0.00 0.00 84 1014.9
20260508000526 47 227 0.0 0.0 0.00 0.00 0.00 84 1014.9
20260508000005 47 227 0.0 0.0 0.00 0.00 0.00 83 1015.0
20260507235527 48 227 0.0 0.0 0.00 0.00 0.00 83 1014.9
20260507235005 48 227 0.0 0.0 0.00 0.00 0.00 83 1014.9
20260507234546 48 227 0.0 0.0 0.00 0.00 0.00 83 1014.9
20260507234024 48 227 0.0 0.0 0.00 0.00 0.00 82 1014.8
20260507233539 48 227 0.0 0.0 0.00 0.00 0.00 82 1014.8
20260507233015 48 219 0.0 0.0 0.00 0.00 0.00 82 1014.8
20260507232540 48 219 0.0 0.0 0.00 0.00 0.00 82 1014.8
20260507232054 48 219 0.0 0.0 0.00 0.00 0.00 81 1014.8
20260507231521 48 219 0.0 1.0 0.00 0.00 0.00 81 1014.8
20260507231056 48 219 0.0 3.0 0.00 0.00 0.00 81 1014.8
20260507230541 49 219 0.0 2.0 0.00 0.00 0.00 81 1014.7
20260507230020 49 219 0.0 2.0 0.00 0.00 0.00 81 1014.8
20260507225538 49 219 0.0 2.0 0.00 0.00 0.00 81 1014.8
20260507225057 49 219 0.0 2.0 0.00 0.00 0.00 80 1014.8
20260507224553 49 220 0.0 6.0 0.00 0.00 0.00 80 1014.8
20260507224014 48 220 1.0 6.0 0.00 0.00 0.00 81 1014.8
20260507223537 48 89 0.0 3.0 0.00 0.00 0.00 81 1014.8
20260507223056 49 89 0.0 0.0 0.00 0.00 0.00 81 1014.8
20260507222539 49 89 0.0 0.0 0.00 0.00 0.00 81 1014.7
20260507222054 49 89 0.0 0.0 0.00 0.00 0.00 81 1014.7
20260507221532 49 89 0.0 0.0 0.00 0.00 0.00 80 1014.7
20260507221059 49 89 0.0 1.0 0.00 0.00 0.00 80 1014.7
20260507220519 49 89 0.0 3.0 0.00 0.00 0.00 80 1014.7
20260507220040 49 89 0.0 5.0 0.00 0.00 0.00 80 1014.8
20260507215518 49 89 0.0 2.0 0.00 0.00 0.00 80 1014.8
20260507215043 49 89 0.0 1.0 0.00 0.00 0.00 80 1014.8
20260507214533 49 89 0.0 2.0 0.00 0.00 0.00 79 1014.8
20260507214102 49 89 0.0 2.0 0.00 0.00 0.00 79 1014.9
20260507213520 49 89 0.0 3.0 0.00 0.00 0.00 79 1014.9
20260507213048 49 89 0.0 3.0 0.00 0.00 0.00 79 1014.9
20260507212518 49 89 1.0 3.0 0.00 0.00 0.00 79 1014.9
20260507212058 49 89 0.0 2.0 0.00 0.00 0.00 79 1014.9
20260507212002 49 89 0.0 0.0 0.00 0.00 0.00 79 1014.9
20260507211522 49 89 0.0 0.0 0.00 0.00 0.00 79 1014.8
20260507211043 49 89 0.0 0.0 0.00 0.00 0.00 79 1014.9
20260507210522 49 89 0.0 0.0 0.00 0.00 0.00 79 1014.8
20260507210110 49 89 0.0 0.0 0.00 0.00 0.00 78 1014.8
20260507205526 50 89 0.0 0.0 0.00 0.00 0.00 78 1014.8
20260507205101 50 89 0.0 1.0 0.00 0.00 0.00 78 1014.7
20260507204520 50 89 0.0 1.0 0.00 0.00 0.00 78 1014.6
20260507204059 50 89 0.0 0.0 0.00 0.00 0.00 78 1014.6
20260507203516 50 89 0.0 5.0 0.00 0.00 0.00 78 1014.6
20260507203038 50 89 0.0 5.0 0.00 0.00 0.00 78 1014.6
20260507202518 50 89 0.0 2.0 0.00 0.00 0.00 78 1014.5
20260507202040 50 89 0.0 2.0 0.00 0.00 0.00 78 1014.4
20260507201519 50 89 0.0 1.0 0.00 0.00 0.00 77 1014.4
20260507201040 50 89 0.0 2.0 0.00 0.00 0.00 77 1014.3
20260507200507 50 89 1.0 3.0 0.00 0.00 0.00 77 1014.4
20260507200100 50 89 0.0 3.0 0.00 0.00 0.00 77 1014.4
20260507195510 50 89 0.0 2.0 0.00 0.00 0.00 77 1014.3
20260507195050 50 89 0.0 1.0 0.00 0.00 0.00 77 1014.3
20260507194524 50 89 0.0 1.0 0.00 0.00 0.00 76 1014.2
20260507194045 50 89 0.0 2.0 0.00 0.00 0.00 76 1014.2
20260507193517 50 89 0.0 2.0 0.00 0.00 0.00 76 1014.2
20260507193108 51 89 0.0 3.0 0.00 0.00 0.00 76 1014.2
20260507192507 51 89 0.0 3.0 0.00 0.00 0.00 76 1014.2
20260507192046 51 89 0.0 2.0 0.00 0.00 0.00 76 1014.2
20260507191530 51 89 0.0 2.0 0.00 0.00 0.00 76 1014.2
20260507191005 51 89 0.0 2.0 0.00 0.00 0.00 77 1014.2
20260507190518 51 89 0.0 2.0 0.00 0.00 0.00 77 1014.1
20260507190041 51 89 0.0 0.0 0.00 0.00 0.00 77 1014.1
20260507185519 51 89 0.0 0.0 0.00 0.00 0.00 76 1014.1
20260507185041 51 89 0.0 3.0 0.00 0.00 0.00 77 1014.0
20260507184504 51 89 1.0 3.0 0.00 0.00 0.00 76 1014.0
20260507184046 51 89 0.0 3.0 0.00 0.00 0.00 76 1014.1
20260507183510 51 89 0.0 0.0 0.00 0.00 0.00 76 1013.9
20260507183036 51 89 0.0 3.0 0.00 0.00 0.00 76 1014.0
20260507182505 51 89 0.0 3.0 0.00 0.00 0.00 76 1014.0
20260507182037 52 89 1.0 2.0 0.00 0.00 0.00 76 1014.0
20260507181558 52 89 0.0 5.0 0.00 0.00 0.00 76 1014.0
20260507181036 52 89 0.0 5.0 0.00 0.00 0.00 76 1014.1
20260507180514 52 89 0.0 3.0 0.00 0.00 0.00 76 1014.0
20260507180050 52 89 1.0 3.0 0.00 0.00 0.00 75 1014.0
20260507175516 52 89 1.0 5.0 0.00 0.00 0.00 75 1014.0
20260507175054 52 89 1.0 7.0 0.00 0.00 0.00 75 1014.0
20260507174519 52 89 1.0 7.0 0.00 0.00 0.00 76 1014.0
20260507174057 52 89 2.0 6.0 0.00 0.00 0.00 76 1014.0
20260507173517 52 89 1.0 5.0 0.00 0.00 0.00 77 1014.1
20260507173040 52 89 0.0 6.0 0.00 0.00 0.00 77 1014.1
20260507172520 52 89 1.0 6.0 0.00 0.00 0.00 76 1014.1
20260507172057 52 88 2.0 5.0 0.00 0.00 0.00 76 1014.1
20260507171521 53 88 1.0 7.0 0.00 0.00 0.00 76 1014.1
20260507171058 53 88 2.0 7.0 0.00 0.00 0.00 76 1014.1
20260507170519 53 88 2.0 5.0 0.00 0.00 0.00 76 1014.2
20260507170047 53 88 1.0 6.0 0.00 0.00 0.00 76 1014.1
20260507165523 53 88 2.0 6.0 0.00 0.00 0.00 76 1014.2
20260507165045 53 88 1.0 8.0 0.00 0.00 0.00 76 1014.3
20260507164525 53 86 3.0 8.0 0.00 0.00 0.00 76 1014.4
20260507164048 53 109 2.0 4.0 0.00 0.00 0.00 77 1014.4
20260507163512 53 109 2.0 5.0 0.00 0.00 0.00 76 1014.3
20260507163047 53 109 2.0 7.0 0.00 0.00 0.00 76 1014.4
20260507162508 53 123 3.0 8.0 0.00 0.00 0.00 77 1014.3
20260507162047 52 108 2.0 8.0 0.00 0.00 0.00 76 1014.4
20260507161510 52 100 2.0 8.0 0.00 0.00 0.00 76 1014.2
20260507161029 52 105 4.0 7.0 0.00 0.00 0.00 76 1014.2
20260507160508 52 122 2.0 7.0 0.00 0.00 0.00 76 1014.2
20260507160054 52 105 2.0 7.0 0.00 0.00 0.00 76 1014.2
20260507155512 52 111 2.0 7.0 0.00 0.00 0.00 77 1014.2
20260507155027 52 84 3.0 6.0 0.00 0.00 0.00 77 1014.3
20260507154549 51 83 1.0 6.0 0.00 0.00 0.00 78 1014.3
20260507154027 51 83 2.0 7.0 0.00 0.00 0.00 77 1014.4
20260507153545 51 83 3.0 7.0 0.00 0.00 0.00 78 1014.4
20260507153025 51 87 2.0 6.0 0.00 0.00 0.00 78 1014.4
20260507152549 51 87 2.0 6.0 0.00 0.00 0.00 78 1014.5
20260507152019 50 87 2.0 7.0 0.00 0.00 0.00 78 1014.5
20260507151543 50 86 4.0 7.0 0.00 0.00 0.00 77 1014.6
20260507151019 50 89 2.0 6.0 0.00 0.00 0.00 77 1014.6
20260507150550 50 87 3.0 7.0 0.00 0.00 0.00 78 1014.6
20260507150021 50 88 3.0 7.0 0.00 0.00 0.00 77 1014.7
20260507145542 50 141 3.0 5.0 0.00 0.00 0.00 77 1014.7
20260507145019 50 141 3.0 5.0 0.00 0.00 0.00 77 1014.7
20260507144550 50 141 2.0 5.0 0.00 0.00 0.00 78 1014.8
20260507144059 50 141 1.0 4.0 0.00 0.00 0.00 78 1014.8
20260507144001 50 141 1.0 4.0 0.00 0.00 0.00 78 1014.8
20260507143540 50 141 1.0 4.0 0.00 0.00 0.00 78 1014.9
20260507143019 50 141 2.0 5.0 0.00 0.00 0.00 77 1015.0
20260507142535 50 141 2.0 5.0 0.00 0.00 0.00 77 1015.0
20260507142055 50 141 2.0 4.0 0.00 0.00 0.00 77 1015.0
20260507141535 50 141 2.0 4.0 0.00 0.00 0.00 77 1015.1
20260507141017 50 141 1.0 4.0 0.00 0.00 0.00 76 1015.1
20260507140535 50 141 2.0 4.0 0.00 0.00 0.00 76 1015.1
20260507140013 50 141 1.0 4.0 0.00 0.00 0.00 76 1015.1
20260507135535 50 141 0.0 4.0 0.00 0.00 0.00 75 1015.2
20260507135015 50 140 1.0 4.0 0.00 0.00 0.00 75 1015.2
20260507134533 50 142 0.0 3.0 0.00 0.00 0.00 74 1015.2
20260507134013 51 141 0.0 4.0 0.00 0.00 0.00 74 1015.2
20260507133551 51 141 1.0 4.0 0.00 0.00 0.00 74 1015.2
20260507133027 51 141 1.0 5.0 0.00 0.00 0.00 74 1015.2
20260507132549 51 141 1.0 5.0 0.00 0.00 0.00 75 1015.2
20260507132026 51 109 1.0 4.0 0.00 0.00 0.00 76 1015.3
20260507131550 50 109 0.0 3.0 0.00 0.00 0.00 75 1015.3
20260507131015 50 109 0.0 4.0 0.00 0.00 0.00 75 1015.4
20260507130551 50 109 1.0 4.0 0.00 0.00 0.00 76 1015.4
20260507130027 50 109 2.0 4.0 0.00 0.00 0.00 75 1015.4
20260507125553 50 115 1.0 5.0 0.00 0.00 0.00 75 1015.4
20260507125014 50 146 2.0 5.0 0.00 0.00 0.00 75 1015.2
20260507124537 50 146 2.0 4.0 0.00 0.00 0.00 75 1015.3
20260507124016 50 146 1.0 3.0 0.00 0.00 0.00 74 1015.4
20260507123539 50 146 1.0 5.0 0.00 0.00 0.00 75 1015.3
20260507123026 50 146 2.0 5.0 0.00 0.00 0.00 75 1015.3
20260507122540 51 146 2.0 4.0 0.00 0.00 0.00 75 1015.2
20260507122020 51 146 1.0 4.0 0.00 0.00 0.00 75 1015.2
20260507121540 51 146 0.0 4.0 0.00 0.00 0.00 75 1015.3
20260507121101 51 130 0.0 4.0 0.00 0.00 0.00 75 1015.3
20260507121005 51 130 0.0 4.0 0.00 0.00 0.00 75 1015.3
20260507120544 51 125 1.0 5.0 0.00 0.00 0.00 75 1015.2
20260507120010 51 120 1.0 6.0 0.00 0.00 0.00 75 1015.1
20260507115525 51 118 2.0 6.0 0.00 0.00 0.00 75 1015.1
20260507115011 51 157 2.0 8.0 0.00 0.00 0.00 74 1015.1
20260507114529 51 126 2.0 8.0 0.00 0.00 0.00 74 1015.1
20260507114007 52 130 1.0 4.0 0.00 0.00 0.00 74 1015.2
20260507113529 52 163 1.0 3.0 0.00 0.00 0.00 73 1015.2
20260507113056 52 150 1.0 5.0 0.00 0.00 0.00 73 1015.2
20260507112538 52 123 1.0 5.0 0.00 0.00 0.00 73 1015.2
20260507112103 52 217 1.0 7.0 0.00 0.00 0.00 71 1015.1
20260507112005 52 212 1.0 7.0 0.00 0.00 0.00 71 1015.2
20260507111556 52 212 2.0 7.0 0.00 0.00 0.00 70 1015.2